Regional Weather Roundup
Issued by NWS

Home | Current Version | Previous Version | Text Only | Print | Product List | Glossary On
Versions: 1 2 3 4 5 6 7 8 9 10 11 12 13 14 15 16 17 18 19 20 21 22 23 24 25 26 27 28
000
ASUS45 KSLC 180410
RWRUT

UTAH REGIONAL WEATHER ROUNDUP
NATIONAL WEATHER SERVICE SALT LAKE CITY UT
900 PM MST WED JAN 17 2018

UTZ001>011-023>025-180500-

NORTHERN UTAH

CITY           SKY/WX    TMP DP  RH WIND       PRES   REMARKS
BRIGHAM CITY   PTCLDY    33  29  86 CALM      30.35S
HILL AFB       PTCLDY    36  28  71 SE7       30.33F WCI  30
LOGAN          PTCLDY    32  26  78 NW3       30.33F
OGDEN          PTCLDY    37  29  72 S10       30.32F WCI  30
SALT LAKE CITY MOCLDY    39  31  72 SE7       30.33F WCI  34
TOOELE VALLEY  PTCLDY    32  30  93 SE5       30.34F WCI  27
WENDOVER       PTCLDY    30  23  75 CALM      30.34S
HEBER CITY       N/A     28  23  80 CALM      30.35S
WEST JORDAN    PTCLDY    35  30  82 S5        30.35F WCI  31

$$

UTZ011>015-024>027-180500-

CENTRAL/NORTHEAST UTAH

CITY           SKY/WX    TMP DP  RH WIND       PRES   REMARKS
PROVO AIRPORT  PTCLDY    30  27  88 S3        30.36F
MOAB/CANYONLAN   N/A    N/A N/A N/A MISG      30.35S
DELTA          PTCLDY    32  30  93 SE3       30.35F
PRICE          CLEAR     28  20  71 N7        30.34F WCI  21
RICHFIELD      CLEAR     32  28  86 CALM      30.37R
ROOSEVELT      PTCLDY    23  14  68 W5        30.39S WCI  17
VERNAL         PTCLDY    23  13  65 SW3       30.37S

$$

UTZ013>016-019>022-027-180500-

SOUTHERN UTAH

CITY           SKY/WX    TMP DP  RH WIND       PRES   REMARKS
BRYCE CANYON   CLEAR     27  24  89 W8        30.38F WCI  19
CEDAR CITY     PTCLDY    34  28  79 SE6       30.34R WCI  29
MILFORD        PTCLDY    34  27  75 CALM      30.35R
ST GEORGE      PTCLDY    46  35  65 SE3       30.29R
HANKSVILLE     CLEAR     30  14  51 CALM      30.38F
KANAB          CLEAR     43  25  49 N13       30.37R
BLANDING         N/A     28  18  66 NE9       30.38F WCI  20

$$

REGIONAL REPORTS     COLORADO/ARIZONA

CITY           SKY/WX    TMP DP  RH WIND       PRES   REMARKS
CRAIG, CO      CLEAR     16   8  71 CALM      30.37F
GRAND JUNCTION CLEAR     27  14  58 E6        30.36S WCI  20
RIFLE, CO      CLEAR     27  16  63 CALM      30.37S
MONTROSE, CO   CLEAR     23  13  65 S9        30.38S WCI  13
CORTEZ, CO     CLEAR     24  18  77 NE10      30.33S WCI  14
COLORADO CITY    N/A     34  30  86 E6        30.35S WCI  29
PAGE, AZ       CLEAR     41  20  43 CALM      30.34S
GRAND CANYON   PTCLDY    25  19  78 CALM      30.37S
KINGMAN, AZ    PTCLDY    48  30  49 E7        30.27R
FLAGSTAFF, AZ  CLEAR     28  17  63 CALM      30.35S

$$

REGIONAL REPORTS    NEVADA/IDAHO/WYOMING

CITY           SKY/WX    TMP DP  RH WIND       PRES   REMARKS
LAS VEGAS, NV  MOCLDY    56  39  53 SW3       30.23F
ELY, NY        MOCLDY    32  23  69 S10       30.33F WCI  24
ELKO, NV       MOCLDY    33  29  85 NE5       30.28S WCI  29
POCATELLO, ID  MOCLDY    32  29  88 NW6       30.30F WCI  26
BURLEY, ID     MOCLDY    34  30  85 NE6       30.25S WCI  29
FORT BRIDGER,    N/A     30  25  82 W12       30.35F WCI  20
EVANSTON, WY   CLEAR     30  25  81 SW5       30.34F WCI  25
ROCK SPRINGS,  CLEAR     30  22  72 S9        30.31F WCI  22

$$




USA.gov is the U.S. government's official web portal to all federal, state and local government web resources and services.